This is the latest recevied weather packets stored in our database for station/object K5GTX. If no packets are shown the sender has not sent any weather packets the latest 10 day(s).
| Time | Temp. | Humidity | Pressure | Rain* | Wind** | Luminosity | Snow |
|---|---|---|---|---|---|---|---|
| 1777429239 | 24.44° C | 99% | 1017 hPa | 0 mm | - | 0 W/m² | - |
| 1777428935 | 25° C | 99% | 1016.8 hPa | 0 mm | - | 0 W/m² | - |
| 1777428631 | 25° C | 99% | 1016.6 hPa | 0 mm | - | 0 W/m² | - |
| 1777428327 | 25° C | 99% | 1016.5 hPa | 0 mm | - | 0 W/m² | - |
| 1777428022 | 25° C | 99% | 1016.4 hPa | 0 mm | - | 0 W/m² | - |
| 1777427719 | 25° C | 99% | 1016.4 hPa | 0 mm | - | 0 W/m² | - |
| 1777427417 | 25° C | 99% | 1016.5 hPa | 0 mm | - | 0 W/m² | - |
| 1777427112 | 25° C | 99% | 1016.6 hPa | 0 mm | - | 0 W/m² | - |
| 1777426810 | 25° C | 99% | 1016.6 hPa | 0 mm | - | 0 W/m² | - |
| 1777426507 | 25.56° C | 99% | 1016.3 hPa | 0 mm | - | 0 W/m² | - |
| 1777426203 | 25.56° C | 99% | 1016.1 hPa | 0 mm | - | 0 W/m² | - |
| 1777425898 | 25.56° C | 99% | 1016.2 hPa | 0 mm | - | 0 W/m² | - |
| 1777425593 | 25.56° C | 99% | 1015.8 hPa | 0 mm | - | 0 W/m² | - |
| 1777425289 | 25.56° C | 99% | 1015.5 hPa | 0 mm | - | 0 W/m² | - |
| 1777424987 | 25.56° C | 99% | 1015.5 hPa | 0 mm | - | 0 W/m² | - |
| 1777424682 | 25.56° C | 99% | 1015.6 hPa | 0 mm | - | 1 W/m² | - |
| 1777424376 | 25.56° C | 99% | 1015.3 hPa | 0 mm | - | 4 W/m² | - |
| 1777424072 | 26.11° C | 99% | 1015.4 hPa | 0 mm | - | 7 W/m² | - |
| 1777423771 | 26.11° C | 99% | 1015.4 hPa | 0 mm | - | 12 W/m² | - |
| 1777423467 | 26.11° C | 99% | 1015.2 hPa | 0 mm | - | 20 W/m² | - |
| 1777423162 | 26.67° C | 99% | 1015 hPa | 0 mm | - | 29 W/m² | - |
| 1777422856 | 26.67° C | 99% | 1015.3 hPa | 0 mm | - | 38 W/m² | - |
| 1777422552 | 26.67° C | 99% | 1015 hPa | 0 mm | - | 53 W/m² | - |
| 1777422248 | 27.22° C | 99% | 1015 hPa | 0 mm | - | 65 W/m² | - |
| 1777421947 | 26.67° C | 99% | 1015.3 hPa | 0 mm | - | 76 W/m² | - |
* Rain latest hour (hover to see other rain measurements)
** Current wind speed in m/s (hover to see current wind gust speed)